Regional Weather Roundup
Issued by NWS Newport/Morehead, NC

Current Version | Previous Version | Text Only | Print | Product List | Glossary On
Versions: 1 2 3 4 5 6 7 8 9 10 11 12 13 14 15 16 17 18 19 20 21 22 23 24 25 26 27 28 29 30 31 32 33 34 35 36 37 38 39 40 41 42 43 44 45 46 47 48 49 50
000 ASUS42 KMHX 291625 RWRMHX WEATHER ROUNDUP FOR EASTERN NORTH CAROLINA NATIONAL WEATHER SERVICE NEWPORT/MOREHEAD CITY NC 1200 PM EDT SAT APR 29 2017 NOTE: "FAIR" INDICATES FEW OR NO CLOUDS BELOW 12,000 FEET WITH NO SIGNIFICANT WEATHER AND/OR OBSTRUCTIONS TO VISIBILITY NCZ015>017-031-032-045>047-102-103-291700- NORTH COAST CITY SKY/WX TMP DP RH WIND PRES REMARKS EDENTON SUNNY 84 71 64 SW10G16 30.19F ELIZABETH CITY LGT RAIN 83 73 72 SW17 30.17F KITTY HAWK SUNNY 83 68 60 CALM 30.16F MANTEO MOSUNNY 82 70 66 W12 30.18F $$ NCZ045>047-081-094-103-104-291700- CENTRAL COAST CITY SKY/WX TMP DP RH WIND PRES REMARKS FRISCO SUNNY 78 72 81 SW13 30.23F HAZE $$ NCZ095-097-098-100-101-291700- SOUTHERN COAST CITY SKY/WX TMP DP RH WIND PRES REMARKS BEAUFORT MOSUNNY 78 75 90 SW16 30.23F CEDAR ISLAND NOT AVBL JACKSONVILLE MOSUNNY 85 71 63 SW8 30.21F PINEY ISLAND PTSUNNY N/A N/A N/A SW15G24 30.22F WILMINGTON MOSUNNY 85 70 60 SW14 30.22F $$ NCZ011>013-027>030-043-044-078>080-089-090>093-098-291700- COASTAL PLAIN CITY SKY/WX TMP DP RH WIND PRES REMARKS AHOSKIE N/A 83 72 69 CALM 30.17F CLINTON SUNNY 83 71 66 S8 30.21F ELIZABETHTOWN PTSUNNY 83 69 63 SW8 30.22F GOLDSBORO MOSUNNY 84 73 70 W15 30.19F GREENVILLE MOSUNNY 82 70 65 SW10 30.21F HAZE HAVELOCK NOT AVBL KENANSVILLE PTSUNNY 84 70 61 SW6 30.22F KINSTON MOSUNNY 84 70 61 SW10G18 30.21F NEW BERN MOSUNNY 84 71 65 W8G18 30.22F RICHLANDS PTSUNNY 83 71 67 SW10 30.22F ROCKY MOUNT SUNNY 83 71 67 SW12 30.20F WASHINGTON MOSUNNY 83 71 65 SW12 30.20F WHITEVILLE MOSUNNY 82 70 66 SW7 30.21F $$ AMZ130-135-150-152-154-156-158-170-250-252-270-ANZ085-086-088-633-658-670-291700- MARINE OBSERVATIONS STATION/POSITION TIME TEMP WIND PRES WAVE SWELL AIR SEA DIR/SP/G HT/PER HT/PER (UTC) (F) (DEG/KT/KT) (MB) (FT/S) (FT/S) CHESAPEAKE LIGHT NOT AVBL 64 E VA BEACH 1550 62 58 230/ 12/ 14 1022.4 4/ 7 3/ 7 DUCK 1600 79 56 250/ 14/ 18 1021.1 2 E DUCK 1600 59 N/A 2/ 8 OREGON INLET 1600 75 190/ 17/ 19 1022.1 13E OREGON INLT 1548 63 N/A 4/ 5 2/ 7 HATTERAS CG 1600 77 72 210/ 9/ 13 1023.4 DIAMOND BUOY 1550 77 76 230/ 14/ 16 1023.9 3/ 7 2/ 7 CAPE LOOKOUT 1600 77 210/ 11/ 14 1023.7 BEAUFORT LAB 1600 76 70 210/ 10/ 14 1023.0 30 SE NEW RVR IN 1608 74 220/ 8/ 12 1024.5 30 SE NEW RVR IN 1543 73 N/A 4/ 6 27 SE WRIGHTSVLE 1608 75 73 200/ 10/ 14 1023.1 5 SE WRIGHTSVLE 1608 74 72 190/ 8/ 14 1023.8 225 S CAPE HAT 1550 75 76 150/ 10/ 12 1025.9 3/ 7 3/ 7 41 SE CHARLESTON 1610 76 180/ 10/ 12 1024.1 $$

USA.gov is the U.S. government's official web portal to all federal, state and local government web resources and services.